Погода в Салдусе

Латвия     56°39′59″N   22°29′38″E
темп.,
°C
ветер,
м/с
пор.,
м/с
влажн.,
%
обл.,
%
осадки,
мм/ч
давл.,
гПа
погр.,
м
7 марта, вс
вс723:00+1зюз71580100 0.0 1006813
02:00+1з71580100 0.0 10041083
05:00−1зсз4997100 2.9 1003674
08:00−2зсз6146291 3.3 10021453
11:00+1зсз9154756 0.0 10042408
14:00+1зсз8135777 0.1 10041912
17:00−2сз71364100 0.1 10051612
20:00−3сз71391100 0.5 10051270
8 марта, пн
пн823:00−3сз81475100 1.1 10061552
02:00−4ссз51079100 1.2 10091048
05:00−5ссз498370 0.0 1011783
08:00−5ссз488779 0.0 1013867
11:00−3с4671100 0.1 1015914
14:00−2с4665100 0.1 1017980
17:00−2с366130 0.0 10181216
20:00−5ссз257915 0.0 1020182
9 марта, вт
вт923:00−6сз22818 0.0 102166
02:00−6зсз127743 0.0 102132
05:00−6зюз227795 0.0 102044
08:00−5юз257994 0.0 1021183
11:00−1зюз466596 0.0 1020788
14:00+1зюз475886 0.0 10201251
17:000зюз5862100 0.0 10191206
20:00−3юз4973100 0.0 1019447
10 марта, ср
ср1023:00−2юз4983100 0.0 1018369
02:00−2юз3876100 0.0 1018349
05:00−2з379799 0.1 1017321
08:00−3зсз269690 0.2 1018290
11:00−2зсз237686 0.1 1019580
14:00−1с238492 0.3 1020433
17:00−3ссв3378100 0.2 1020532
20:00−6св358780 0.2 1021268
11 марта, чт
чт1123:00−6в128726 0.0 1021168
02:00−6юв238943 0.0 1020101
05:00−6ююв369150 0.0 1017257
08:00−5ююв498774 0.0 1015330
11:00−1ююв61268100 0.0 1011673
14:00+1ююв81451100 0.0 10071000
17:00+1ююв91661100 0.2 1002984
20:00−1ю91793100 1.4 998911